owner,sensor,date,latitude,longitude,relative_humidity,qcFlag 
COMPS,ioos:station:USF.COMPS:C12:1,2014-12-11T02:35:00Z,27.4980,-83.7220,38.86,1111122 
COMPS,ioos:station:USF.COMPS:C12:1,2014-12-11T03:05:00Z,27.4980,-83.7220,65.62,1111122 
COMPS,ioos:station:USF.COMPS:C12:1,2014-12-11T03:35:00Z,27.4980,-83.7220,66.1,1111122 
COMPS,ioos:station:USF.COMPS:C12:1,2014-12-11T04:05:00Z,27.4980,-83.7220,65.94,1111122 
COMPS,ioos:station:USF.COMPS:C12:1,2014-12-11T04:35:00Z,27.4980,-83.7220,66.8,1111122 
COMPS,ioos:station:USF.COMPS:C12:1,2014-12-11T05:05:00Z,27.4980,-83.7220,65.79,1111122 
COMPS,ioos:station:USF.COMPS:C12:1,2014-12-11T05:35:00Z,27.4980,-83.7220,65.53,1111122 
COMPS,ioos:station:USF.COMPS:C12:1,2014-12-11T06:05:00Z,27.4980,-83.7220,66.71,1111122 
COMPS,ioos:station:USF.COMPS:C12:1,2014-12-11T06:35:00Z,27.4980,-83.7220,66.99,1111122 
COMPS,ioos:station:USF.COMPS:C12:1,2014-12-11T07:05:00Z,27.4980,-83.7220,63.14,1111122 
COMPS,ioos:station:USF.COMPS:C12:1,2014-12-11T07:35:00Z,27.4980,-83.7220,60.79,1111122 
COMPS,ioos:station:USF.COMPS:C12:1,2014-12-11T08:05:00Z,27.4980,-83.7220,59.94,1111122 
COMPS,ioos:station:USF.COMPS:C12:1,2014-12-11T08:35:00Z,27.4980,-83.7220,60.76,1111122 
COMPS,ioos:station:USF.COMPS:C12:1,2014-12-11T09:05:00Z,27.4980,-83.7220,59.91,1111122 
COMPS,ioos:station:USF.COMPS:C12:1,2014-12-11T09:35:00Z,27.4980,-83.7220,60.79,1111122 
COMPS,ioos:station:USF.COMPS:C12:1,2014-12-11T10:05:00Z,27.4980,-83.7220,59.05,1111122 
COMPS,ioos:station:USF.COMPS:C12:1,2014-12-11T10:35:00Z,27.4980,-83.7220,69.04,1111122 
COMPS,ioos:station:USF.COMPS:C12:1,2014-12-11T11:05:00Z,27.4980,-83.7220,69.26,1111122 
COMPS,ioos:station:USF.COMPS:C12:1,2014-12-11T11:35:00Z,27.4980,-83.7220,68.87,1111122 
COMPS,ioos:station:USF.COMPS:C12:1,2014-12-11T12:05:00Z,27.4980,-83.7220,67.57,1111122 
COMPS,ioos:station:USF.COMPS:C12:1,2014-12-11T12:35:00Z,27.4980,-83.7220,66.5,1111122 
COMPS,ioos:station:USF.COMPS:C12:1,2014-12-11T13:05:00Z,27.4980,-83.7220,62.81,1111122 
COMPS,ioos:station:USF.COMPS:C12:1,2014-12-11T13:35:00Z,27.4980,-83.7220,64.48,1111122 
COMPS,ioos:station:USF.COMPS:C12:1,2014-12-11T14:05:00Z,27.4980,-83.7220,63.48,1111122 
COMPS,ioos:station:USF.COMPS:C12:1,2014-12-11T14:35:00Z,27.4980,-83.7220,61.85,1111122 
COMPS,ioos:station:USF.COMPS:C12:1,2014-12-11T15:05:00Z,27.4980,-83.7220,61.38,1111122 
COMPS,ioos:station:USF.COMPS:C12:1,2014-12-11T15:35:00Z,27.4980,-83.7220,60.87,1111122 
COMPS,ioos:station:USF.COMPS:C12:1,2014-12-11T16:05:00Z,27.4980,-83.7220,58.38,1111122 
COMPS,ioos:station:USF.COMPS:C12:1,2014-12-11T16:35:00Z,27.4980,-83.7220,60.85,1111122 
COMPS,ioos:station:USF.COMPS:C12:1,2014-12-11T17:05:00Z,27.4980,-83.7220,60.38,1111122 
COMPS,ioos:station:USF.COMPS:C12:1,2014-12-11T17:35:00Z,27.4980,-83.7220,64.69,1111122 
COMPS,ioos:station:USF.COMPS:C12:1,2014-12-11T18:05:00Z,27.4980,-83.7220,65.86,1111122 
COMPS,ioos:station:USF.COMPS:C12:1,2014-12-11T18:35:00Z,27.4980,-83.7220,65.07,1111122 
COMPS,ioos:station:USF.COMPS:C12:1,2014-12-11T19:05:00Z,27.4980,-83.7220,62.99,1111122 
COMPS,ioos:station:USF.COMPS:C12:1,2014-12-11T19:35:00Z,27.4980,-83.7220,55.39,1111122 
COMPS,ioos:station:USF.COMPS:C12:1,2014-12-11T20:05:00Z,27.4980,-83.7220,64.06,1111122 
COMPS,ioos:station:USF.COMPS:C12:1,2014-12-11T20:35:00Z,27.4980,-83.7220,73.82,1111122 
COMPS,ioos:station:USF.COMPS:C12:1,2014-12-11T21:05:00Z,27.4980,-83.7220,73.37,1111122 
COMPS,ioos:station:USF.COMPS:C12:1,2014-12-11T21:35:00Z,27.4980,-83.7220,75.38,1111122 
COMPS,ioos:station:USF.COMPS:C12:1,2014-12-11T22:05:00Z,27.4980,-83.7220,73.05,1111122 
COMPS,ioos:station:USF.COMPS:C12:1,2014-12-11T22:35:00Z,27.4980,-83.7220,72.92,1111122 
COMPS,ioos:station:USF.COMPS:C12:1,2014-12-11T23:05:00Z,27.4980,-83.7220,73.39,1111122 
COMPS,ioos:station:USF.COMPS:C12:1,2014-12-11T23:35:00Z,27.4980,-83.7220,73.49,1111122 
COMPS,ioos:station:USF.COMPS:C12:1,2014-12-12T00:05:00Z,27.4980,-83.7220,75.72,1111122 
COMPS,ioos:station:USF.COMPS:C12:1,2014-12-12T00:35:00Z,27.4980,-83.7220,74.73,1111122 
COMPS,ioos:station:USF.COMPS:C12:1,2014-12-12T01:05:00Z,27.4980,-83.7220,72.7,1111122 
COMPS,ioos:station:USF.COMPS:C12:1,2014-12-12T01:35:00Z,27.4980,-83.7220,70.67,1111122 
COMPS,ioos:station:USF.COMPS:C12:1,2014-12-12T02:05:00Z,27.4980,-83.7220,68.66,1111122 
COMPS,ioos:station:USF.COMPS:C12:1,2014-12-12T02:35:00Z,27.4980,-83.7220,65.65,1111122 
COMPS,ioos:station:USF.COMPS:C12:1,2014-12-12T03:05:00Z,27.4980,-83.7220,64.09,1111122 
COMPS,ioos:station:USF.COMPS:C12:1,2014-12-12T03:35:00Z,27.4980,-83.7220,61.78,1111122 
COMPS,ioos:station:USF.COMPS:C12:1,2014-12-12T04:05:00Z,27.4980,-83.7220,59.83,1111122 
COMPS,ioos:station:USF.COMPS:C12:1,2014-12-12T04:35:00Z,27.4980,-83.7220,59.26,1111122 
COMPS,ioos:station:USF.COMPS:C12:1,2014-12-12T05:05:00Z,27.4980,-83.7220,58.55,1111122 
COMPS,ioos:station:USF.COMPS:C12:1,2014-12-12T05:35:00Z,27.4980,-83.7220,62.17,1111122 
COMPS,ioos:station:USF.COMPS:C12:1,2014-12-12T06:05:00Z,27.4980,-83.7220,66.33,1111122 
COMPS,ioos:station:USF.COMPS:C12:1,2014-12-12T06:35:00Z,27.4980,-83.7220,62.98,1111122 
COMPS,ioos:station:USF.COMPS:C12:1,2014-12-12T07:05:00Z,27.4980,-83.7220,63.1,1111122 
COMPS,ioos:station:USF.COMPS:C12:1,2014-12-12T07:35:00Z,27.4980,-83.7220,62.78,1111122 
COMPS,ioos:station:USF.COMPS:C12:1,2014-12-12T08:05:00Z,27.4980,-83.7220,61.74,1111122 
COMPS,ioos:station:USF.COMPS:C12:1,2014-12-12T08:35:00Z,27.4980,-83.7220,61.91,1111122 
COMPS,ioos:station:USF.COMPS:C12:1,2014-12-12T09:05:00Z,27.4980,-83.7220,62.05,1111122 
COMPS,ioos:station:USF.COMPS:C12:1,2014-12-12T09:35:00Z,27.4980,-83.7220,61.28,1111122 
COMPS,ioos:station:USF.COMPS:C12:1,2014-12-12T10:05:00Z,27.4980,-83.7220,62.94,1111122 
COMPS,ioos:station:USF.COMPS:C12:1,2014-12-12T10:35:00Z,27.4980,-83.7220,62.37,1111122 
COMPS,ioos:station:USF.COMPS:C12:1,2014-12-12T11:05:00Z,27.4980,-83.7220,60.57,1111122 
COMPS,ioos:station:USF.COMPS:C12:1,2014-12-12T11:35:00Z,27.4980,-83.7220,61.54,1111122 
COMPS,ioos:station:USF.COMPS:C12:1,2014-12-12T12:05:00Z,27.4980,-83.7220,61.47,1111122 
COMPS,ioos:station:USF.COMPS:C12:1,2014-12-12T12:35:00Z,27.4980,-83.7220,59.47,1111122 
COMPS,ioos:station:USF.COMPS:C12:1,2014-12-12T13:05:00Z,27.4980,-83.7220,60.29,1111122 
COMPS,ioos:station:USF.COMPS:C12:1,2014-12-12T13:35:00Z,27.4980,-83.7220,60.95,1111122 
COMPS,ioos:station:USF.COMPS:C12:1,2014-12-12T14:05:00Z,27.4980,-83.7220,63.83,1111122 
COMPS,ioos:station:USF.COMPS:C12:1,2014-12-12T14:35:00Z,27.4980,-83.7220,63.09,1111122 
COMPS,ioos:station:USF.COMPS:C12:1,2014-12-12T15:05:00Z,27.4980,-83.7220,61.95,1111122 
COMPS,ioos:station:USF.COMPS:C12:1,2014-12-12T15:35:00Z,27.4980,-83.7220,59.0,1111122 
COMPS,ioos:station:USF.COMPS:C12:1,2014-12-12T16:05:00Z,27.4980,-83.7220,57.53,1111122 
COMPS,ioos:station:USF.COMPS:C12:1,2014-12-12T16:35:00Z,27.4980,-83.7220,58.22,1111122 
COMPS,ioos:station:USF.COMPS:C12:1,2014-12-12T17:05:00Z,27.4980,-83.7220,58.5,1111122 
COMPS,ioos:station:USF.COMPS:C12:1,2014-12-12T17:35:00Z,27.4980,-83.7220,56.35,1111122 
COMPS,ioos:station:USF.COMPS:C12:1,2014-12-12T18:05:00Z,27.4980,-83.7220,58.26,1111122 
COMPS,ioos:station:USF.COMPS:C12:1,2014-12-12T18:35:00Z,27.4980,-83.7220,57.63,1111122 
COMPS,ioos:station:USF.COMPS:C12:1,2014-12-12T19:05:00Z,27.4980,-83.7220,57.53,1111122 
COMPS,ioos:station:USF.COMPS:C12:1,2014-12-12T19:35:00Z,27.4980,-83.7220,58.53,1111122 
COMPS,ioos:station:USF.COMPS:C12:1,2014-12-12T20:05:00Z,27.4980,-83.7220,56.26,1111122 
COMPS,ioos:station:USF.COMPS:C12:1,2014-12-12T20:35:00Z,27.4980,-83.7220,56.89,1111122 
COMPS,ioos:station:USF.COMPS:C12:1,2014-12-12T21:05:00Z,27.4980,-83.7220,54.52,1111122 
COMPS,ioos:station:USF.COMPS:C12:1,2014-12-12T21:35:00Z,27.4980,-83.7220,55.3,1111122 
COMPS,ioos:station:USF.COMPS:C12:1,2014-12-12T22:05:00Z,27.4980,-83.7220,55.15,1111122 
COMPS,ioos:station:USF.COMPS:C12:1,2014-12-12T22:35:00Z,27.4980,-83.7220,55.48,1111122 
COMPS,ioos:station:USF.COMPS:C12:1,2014-12-12T23:05:00Z,27.4980,-83.7220,53.79,1111122 
COMPS,ioos:station:USF.COMPS:C12:1,2014-12-12T23:35:00Z,27.4980,-83.7220,55.1,1111122 
COMPS,ioos:station:USF.COMPS:C12:1,2014-12-13T00:05:00Z,27.4980,-83.7220,53.61,1111122 
COMPS,ioos:station:USF.COMPS:C12:1,2014-12-13T00:35:00Z,27.4980,-83.7220,52.35,1111122 
COMPS,ioos:station:USF.COMPS:C12:1,2014-12-13T01:05:00Z,27.4980,-83.7220,53.9,1111122 
COMPS,ioos:station:USF.COMPS:C12:1,2014-12-13T01:35:00Z,27.4980,-83.7220,52.47,1111122 
COMPS,ioos:station:USF.COMPS:C12:1,2014-12-13T02:05:00Z,27.4980,-83.7220,52.96,1111122 
COMPS,ioos:station:USF.COMPS:C12:1,2014-12-13T02:35:00Z,27.4980,-83.7220,54.26,1111122 
COMPS,ioos:station:USF.COMPS:C12:1,2014-12-13T03:05:00Z,27.4980,-83.7220,50.57,1111122 
COMPS,ioos:station:USF.COMPS:C12:1,2014-12-13T03:35:00Z,27.4980,-83.7220,51.58,1111122 
COMPS,ioos:station:USF.COMPS:C12:1,2014-12-13T04:05:00Z,27.4980,-83.7220,51.97,1111122 
COMPS,ioos:station:USF.COMPS:C12:1,2014-12-13T04:35:00Z,27.4980,-83.7220,52.74,1111122 
COMPS,ioos:station:USF.COMPS:C12:1,2014-12-13T05:05:00Z,27.4980,-83.7220,53.63,1111122 
COMPS,ioos:station:USF.COMPS:C12:1,2014-12-13T05:35:00Z,27.4980,-83.7220,54.53,1111122 
COMPS,ioos:station:USF.COMPS:C12:1,2014-12-13T06:05:00Z,27.4980,-83.7220,53.25,1111122 
COMPS,ioos:station:USF.COMPS:C12:1,2014-12-13T06:35:00Z,27.4980,-83.7220,55.15,1111122 
COMPS,ioos:station:USF.COMPS:C12:1,2014-12-13T07:05:00Z,27.4980,-83.7220,54.45,1111122 
COMPS,ioos:station:USF.COMPS:C12:1,2014-12-13T07:35:00Z,27.4980,-83.7220,55.88,1111122 
COMPS,ioos:station:USF.COMPS:C12:1,2014-12-13T08:05:00Z,27.4980,-83.7220,52.11,1111122 
COMPS,ioos:station:USF.COMPS:C12:1,2014-12-13T08:35:00Z,27.4980,-83.7220,52.44,1111122 
COMPS,ioos:station:USF.COMPS:C12:1,2014-12-13T09:05:00Z,27.4980,-83.7220,55.14,1111122 
COMPS,ioos:station:USF.COMPS:C12:1,2014-12-13T09:35:00Z,27.4980,-83.7220,56.5,1111122 
COMPS,ioos:station:USF.COMPS:C12:1,2014-12-13T10:05:00Z,27.4980,-83.7220,54.67,1111122 
COMPS,ioos:station:USF.COMPS:C12:1,2014-12-13T10:35:00Z,27.4980,-83.7220,52.14,1111122 
COMPS,ioos:station:USF.COMPS:C12:1,2014-12-13T11:05:00Z,27.4980,-83.7220,51.32,1111122 
COMPS,ioos:station:USF.COMPS:C12:1,2014-12-13T11:35:00Z,27.4980,-83.7220,52.62,1111122 
COMPS,ioos:station:USF.COMPS:C12:1,2014-12-13T12:05:00Z,27.4980,-83.7220,54.47,1111122 
COMPS,ioos:station:USF.COMPS:C12:1,2014-12-13T12:35:00Z,27.4980,-83.7220,52.74,1111122 
COMPS,ioos:station:USF.COMPS:C12:1,2014-12-13T13:05:00Z,27.4980,-83.7220,52.38,1111122 
COMPS,ioos:station:USF.COMPS:C12:1,2014-12-13T13:35:00Z,27.4980,-83.7220,56.12,1111122 
COMPS,ioos:station:USF.COMPS:C12:1,2014-12-13T14:05:00Z,27.4980,-83.7220,55.81,1111122 
COMPS,ioos:station:USF.COMPS:C12:1,2014-12-13T14:35:00Z,27.4980,-83.7220,53.71,1111122 
COMPS,ioos:station:USF.COMPS:C12:1,2014-12-13T15:05:00Z,27.4980,-83.7220,51.9,1111122 
COMPS,ioos:station:USF.COMPS:C12:1,2014-12-13T15:35:00Z,27.4980,-83.7220,52.34,1111122 
COMPS,ioos:station:USF.COMPS:C12:1,2014-12-13T16:05:00Z,27.4980,-83.7220,53.52,1111122 
COMPS,ioos:station:USF.COMPS:C12:1,2014-12-13T16:35:00Z,27.4980,-83.7220,54.72,1111122 
COMPS,ioos:station:USF.COMPS:C12:1,2014-12-13T17:05:00Z,27.4980,-83.7220,57.83,1111122 
COMPS,ioos:station:USF.COMPS:C12:1,2014-12-13T17:35:00Z,27.4980,-83.7220,58.46,1111122 
COMPS,ioos:station:USF.COMPS:C12:1,2014-12-13T18:05:00Z,27.4980,-83.7220,58.6,1111122 
COMPS,ioos:station:USF.COMPS:C12:1,2014-12-13T18:35:00Z,27.4980,-83.7220,53.92,1111122 
COMPS,ioos:station:USF.COMPS:C12:1,2014-12-13T19:05:00Z,27.4980,-83.7220,53.76,1111122 
COMPS,ioos:station:USF.COMPS:C12:1,2014-12-13T19:35:00Z,27.4980,-83.7220,55.52,1111122 
COMPS,ioos:station:USF.COMPS:C12:1,2014-12-13T20:05:00Z,27.4980,-83.7220,53.93,1111122 
COMPS,ioos:station:USF.COMPS:C12:1,2014-12-13T20:35:00Z,27.4980,-83.7220,55.05,1111122 
COMPS,ioos:station:USF.COMPS:C12:1,2014-12-13T21:05:00Z,27.4980,-83.7220,58.06,1111122 
COMPS,ioos:station:USF.COMPS:C12:1,2014-12-13T21:35:00Z,27.4980,-83.7220,59.12,1111122 
COMPS,ioos:station:USF.COMPS:C12:1,2014-12-13T22:05:00Z,27.4980,-83.7220,56.51,1111122 
COMPS,ioos:station:USF.COMPS:C12:1,2014-12-13T22:35:00Z,27.4980,-83.7220,57.69,1111122 
COMPS,ioos:station:USF.COMPS:C12:1,2014-12-13T23:05:00Z,27.4980,-83.7220,57.35,1111122 
COMPS,ioos:station:USF.COMPS:C12:1,2014-12-13T23:35:00Z,27.4980,-83.7220,55.36,1111122 
COMPS,ioos:station:USF.COMPS:C12:1,2014-12-14T00:05:00Z,27.4980,-83.7220,54.77,1111122 
COMPS,ioos:station:USF.COMPS:C12:1,2014-12-14T00:35:00Z,27.4980,-83.7220,55.36,1111122 
COMPS,ioos:station:USF.COMPS:C12:1,2014-12-14T01:05:00Z,27.4980,-83.7220,55.45,1111122 
COMPS,ioos:station:USF.COMPS:C12:1,2014-12-14T01:35:00Z,27.4980,-83.7220,50.09,1111122 
COMPS,ioos:station:USF.COMPS:C12:1,2014-12-14T02:05:00Z,27.4980,-83.7220,49.22,1111122 
COMPS,ioos:station:USF.COMPS:C12:1,2014-12-14T02:35:00Z,27.4980,-83.7220,52.94,1111122 
COMPS,ioos:station:USF.COMPS:C12:1,2014-12-14T03:05:00Z,27.4980,-83.7220,52.15,1111122 
COMPS,ioos:station:USF.COMPS:C12:1,2014-12-14T03:35:00Z,27.4980,-83.7220,56.46,1111122 
COMPS,ioos:station:USF.COMPS:C12:1,2014-12-14T04:05:00Z,27.4980,-83.7220,53.56,1111122 
COMPS,ioos:station:USF.COMPS:C12:1,2014-12-14T04:35:00Z,27.4980,-83.7220,55.95,1111122 
COMPS,ioos:station:USF.COMPS:C12:1,2014-12-14T05:05:00Z,27.4980,-83.7220,57.77,1111122 
COMPS,ioos:station:USF.COMPS:C12:1,2014-12-14T05:35:00Z,27.4980,-83.7220,55.75,1111122 
COMPS,ioos:station:USF.COMPS:C12:1,2014-12-14T06:05:00Z,27.4980,-83.7220,56.06,1111122 
COMPS,ioos:station:USF.COMPS:C12:1,2014-12-14T06:35:00Z,27.4980,-83.7220,56.18,1111122 
COMPS,ioos:station:USF.COMPS:C12:1,2014-12-14T07:05:00Z,27.4980,-83.7220,56.05,1111122 
COMPS,ioos:station:USF.COMPS:C12:1,2014-12-14T07:35:00Z,27.4980,-83.7220,54.2,1111122 
COMPS,ioos:station:USF.COMPS:C12:1,2014-12-14T08:05:00Z,27.4980,-83.7220,55.2,1111122 
COMPS,ioos:station:USF.COMPS:C12:1,2014-12-14T08:35:00Z,27.4980,-83.7220,55.68,1111122 
COMPS,ioos:station:USF.COMPS:C12:1,2014-12-14T09:05:00Z,27.4980,-83.7220,55.2,1111122 
COMPS,ioos:station:USF.COMPS:C12:1,2014-12-14T09:35:00Z,27.4980,-83.7220,54.36,1111122 
COMPS,ioos:station:USF.COMPS:C12:1,2014-12-14T10:05:00Z,27.4980,-83.7220,56.03,1111122 
COMPS,ioos:station:USF.COMPS:C12:1,2014-12-14T10:35:00Z,27.4980,-83.7220,56.64,1111122 
COMPS,ioos:station:USF.COMPS:C12:1,2014-12-14T11:05:00Z,27.4980,-83.7220,55.8,1111122 
COMPS,ioos:station:USF.COMPS:C12:1,2014-12-14T11:35:00Z,27.4980,-83.7220,57.28,1111122 
COMPS,ioos:station:USF.COMPS:C12:1,2014-12-14T12:05:00Z,27.4980,-83.7220,59.19,1111122 
COMPS,ioos:station:USF.COMPS:C12:1,2014-12-14T12:35:00Z,27.4980,-83.7220,59.37,1111122 
COMPS,ioos:station:USF.COMPS:C12:1,2014-12-14T13:05:00Z,27.4980,-83.7220,58.09,1111122 
COMPS,ioos:station:USF.COMPS:C12:1,2014-12-14T13:35:00Z,27.4980,-83.7220,55.03,1111122 
COMPS,ioos:station:USF.COMPS:C12:1,2014-12-14T14:05:00Z,27.4980,-83.7220,55.8,1111122 
COMPS,ioos:station:USF.COMPS:C12:1,2014-12-14T14:35:00Z,27.4980,-83.7220,55.92,1111122 
COMPS,ioos:station:USF.COMPS:C12:1,2014-12-14T15:05:00Z,27.4980,-83.7220,56.32,1111122 
COMPS,ioos:station:USF.COMPS:C12:1,2014-12-14T15:35:00Z,27.4980,-83.7220,56.43,1111122 
COMPS,ioos:station:USF.COMPS:C12:1,2014-12-14T16:05:00Z,27.4980,-83.7220,55.0,1111122 
COMPS,ioos:station:USF.COMPS:C12:1,2014-12-14T16:35:00Z,27.4980,-83.7220,56.25,1111122 
COMPS,ioos:station:USF.COMPS:C12:1,2014-12-14T17:05:00Z,27.4980,-83.7220,57.71,1111122 
COMPS,ioos:station:USF.COMPS:C12:1,2014-12-14T17:35:00Z,27.4980,-83.7220,58.94,1111122 
COMPS,ioos:station:USF.COMPS:C12:1,2014-12-14T18:05:00Z,27.4980,-83.7220,59.94,1111122 
COMPS,ioos:station:USF.COMPS:C12:1,2014-12-14T18:35:00Z,27.4980,-83.7220,59.75,1111122 
COMPS,ioos:station:USF.COMPS:C12:1,2014-12-14T19:05:00Z,27.4980,-83.7220,61.12,1111122 
COMPS,ioos:station:USF.COMPS:C12:1,2014-12-14T19:35:00Z,27.4980,-83.7220,61.27,1111122 
COMPS,ioos:station:USF.COMPS:C12:1,2014-12-14T20:05:00Z,27.4980,-83.7220,60.03,1111122 
COMPS,ioos:station:USF.COMPS:C12:1,2014-12-14T20:35:00Z,27.4980,-83.7220,60.65,1111122 
COMPS,ioos:station:USF.COMPS:C12:1,2014-12-14T21:05:00Z,27.4980,-83.7220,59.43,1111122 
COMPS,ioos:station:USF.COMPS:C12:1,2014-12-14T21:35:00Z,27.4980,-83.7220,57.82,1111122 
COMPS,ioos:station:USF.COMPS:C12:1,2014-12-14T22:05:00Z,27.4980,-83.7220,58.79,1111122 
COMPS,ioos:station:USF.COMPS:C12:1,2014-12-14T22:35:00Z,27.4980,-83.7220,60.27,1111122 
COMPS,ioos:station:USF.COMPS:C12:1,2014-12-14T23:05:00Z,27.4980,-83.7220,59.57,1111122 
COMPS,ioos:station:USF.COMPS:C12:1,2014-12-14T23:35:00Z,27.4980,-83.7220,59.45,1111122 
COMPS,ioos:station:USF.COMPS:C12:1,2014-12-15T00:05:00Z,27.4980,-83.7220,59.76,1111122 
COMPS,ioos:station:USF.COMPS:C12:1,2014-12-15T00:35:00Z,27.4980,-83.7220,58.91,1111122 
COMPS,ioos:station:USF.COMPS:C12:1,2014-12-15T01:05:00Z,27.4980,-83.7220,58.67,1111122 
COMPS,ioos:station:USF.COMPS:C12:1,2014-12-15T01:35:00Z,27.4980,-83.7220,60.64,1111122 
COMPS,ioos:station:USF.COMPS:C12:1,2014-12-15T02:05:00Z,27.4980,-83.7220,60.15,1111122 
COMPS,ioos:station:USF.COMPS:C12:1,2014-12-15T02:35:00Z,27.4980,-83.7220,61.16,1111122 
COMPS,ioos:station:USF.COMPS:C12:1,2014-12-15T03:05:00Z,27.4980,-83.7220,60.84,1111122 
COMPS,ioos:station:USF.COMPS:C12:1,2014-12-15T03:35:00Z,27.4980,-83.7220,62.45,1111122 
COMPS,ioos:station:USF.COMPS:C12:1,2014-12-15T04:05:00Z,27.4980,-83.7220,62.95,1111122 
COMPS,ioos:station:USF.COMPS:C12:1,2014-12-15T04:35:00Z,27.4980,-83.7220,62.97,1111122 
COMPS,ioos:station:USF.COMPS:C12:1,2014-12-15T05:05:00Z,27.4980,-83.7220,63.71,1111122 
COMPS,ioos:station:USF.COMPS:C12:1,2014-12-15T05:35:00Z,27.4980,-83.7220,63.23,1111122 
COMPS,ioos:station:USF.COMPS:C12:1,2014-12-15T06:05:00Z,27.4980,-83.7220,64.58,1111122 
COMPS,ioos:station:USF.COMPS:C12:1,2014-12-15T06:35:00Z,27.4980,-83.7220,63.94,1111122 
COMPS,ioos:station:USF.COMPS:C12:1,2014-12-15T07:05:00Z,27.4980,-83.7220,63.52,1111122 
COMPS,ioos:station:USF.COMPS:C12:1,2014-12-15T07:35:00Z,27.4980,-83.7220,61.96,1111122 
COMPS,ioos:station:USF.COMPS:C12:1,2014-12-15T08:05:00Z,27.4980,-83.7220,63.89,1111122 
COMPS,ioos:station:USF.COMPS:C12:1,2014-12-15T08:35:00Z,27.4980,-83.7220,65.06,1111122 
COMPS,ioos:station:USF.COMPS:C12:1,2014-12-15T09:05:00Z,27.4980,-83.7220,63.9,1111122 
COMPS,ioos:station:USF.COMPS:C12:1,2014-12-15T09:35:00Z,27.4980,-83.7220,63.78,1111122 
COMPS,ioos:station:USF.COMPS:C12:1,2014-12-15T10:05:00Z,27.4980,-83.7220,64.32,1111122 
COMPS,ioos:station:USF.COMPS:C12:1,2014-12-15T10:35:00Z,27.4980,-83.7220,63.22,1111122 
COMPS,ioos:station:USF.COMPS:C12:1,2014-12-15T11:05:00Z,27.4980,-83.7220,63.28,1111122 
COMPS,ioos:station:USF.COMPS:C12:1,2014-12-15T11:35:00Z,27.4980,-83.7220,66.95,1111122 
COMPS,ioos:station:USF.COMPS:C12:1,2014-12-15T12:05:00Z,27.4980,-83.7220,66.75,1111122 
COMPS,ioos:station:USF.COMPS:C12:1,2014-12-15T12:35:00Z,27.4980,-83.7220,65.96,1111122 
COMPS,ioos:station:USF.COMPS:C12:1,2014-12-15T13:05:00Z,27.4980,-83.7220,65.35,1111122 
COMPS,ioos:station:USF.COMPS:C12:1,2014-12-15T13:35:00Z,27.4980,-83.7220,66.32,1111122 
COMPS,ioos:station:USF.COMPS:C12:1,2014-12-15T14:05:00Z,27.4980,-83.7220,65.84,1111122 
COMPS,ioos:station:USF.COMPS:C12:1,2014-12-15T14:35:00Z,27.4980,-83.7220,66.66,1111122 
COMPS,ioos:station:USF.COMPS:C12:1,2014-12-15T15:05:00Z,27.4980,-83.7220,65.47,1111122 
COMPS,ioos:station:USF.COMPS:C12:1,2014-12-15T15:35:00Z,27.4980,-83.7220,62.56,1111122 
COMPS,ioos:station:USF.COMPS:C12:1,2014-12-15T16:05:00Z,27.4980,-83.7220,66.69,1111122 
COMPS,ioos:station:USF.COMPS:C12:1,2014-12-15T16:35:00Z,27.4980,-83.7220,68.57,1111122 
COMPS,ioos:station:USF.COMPS:C12:1,2014-12-15T17:05:00Z,27.4980,-83.7220,67.98,1111122 
COMPS,ioos:station:USF.COMPS:C12:1,2014-12-15T17:35:00Z,27.4980,-83.7220,67.83,1111122 
COMPS,ioos:station:USF.COMPS:C12:1,2014-12-15T18:05:00Z,27.4980,-83.7220,71.21,1111122 
COMPS,ioos:station:USF.COMPS:C12:1,2014-12-15T18:35:00Z,27.4980,-83.7220,71.7,1111122 
COMPS,ioos:station:USF.COMPS:C12:1,2014-12-15T19:05:00Z,27.4980,-83.7220,71.04,1111122 
COMPS,ioos:station:USF.COMPS:C12:1,2014-12-15T19:35:00Z,27.4980,-83.7220,70.98,1111122 
COMPS,ioos:station:USF.COMPS:C12:1,2014-12-15T20:05:00Z,27.4980,-83.7220,69.25,1111122 
COMPS,ioos:station:USF.COMPS:C12:1,2014-12-15T20:35:00Z,27.4980,-83.7220,67.61,1111122 
COMPS,ioos:station:USF.COMPS:C12:1,2014-12-15T21:05:00Z,27.4980,-83.7220,67.99,1111122 
COMPS,ioos:station:USF.COMPS:C12:1,2014-12-15T21:35:00Z,27.4980,-83.7220,66.54,1111122 
COMPS,ioos:station:USF.COMPS:C12:1,2014-12-15T22:05:00Z,27.4980,-83.7220,68.33,1111122 
COMPS,ioos:station:USF.COMPS:C12:1,2014-12-15T22:35:00Z,27.4980,-83.7220,71.86,1111122 
COMPS,ioos:station:USF.COMPS:C12:1,2014-12-15T23:05:00Z,27.4980,-83.7220,72.44,1111122 
COMPS,ioos:station:USF.COMPS:C12:1,2014-12-15T23:35:00Z,27.4980,-83.7220,72.86,1111122 
COMPS,ioos:station:USF.COMPS:C12:1,2014-12-16T00:05:00Z,27.4980,-83.7220,72.39,1111122 
COMPS,ioos:station:USF.COMPS:C12:1,2014-12-16T00:35:00Z,27.4980,-83.7220,72.82,1111122 
COMPS,ioos:station:USF.COMPS:C12:1,2014-12-16T01:05:00Z,27.4980,-83.7220,71.56,1111122 
COMPS,ioos:station:USF.COMPS:C12:1,2014-12-16T01:35:00Z,27.4980,-83.7220,69.04,1111122 
COMPS,ioos:station:USF.COMPS:C12:1,2014-12-16T02:05:00Z,27.4980,-83.7220,68.6,1111122 
COMPS,ioos:station:USF.COMPS:C12:1,2014-12-16T02:35:00Z,27.4980,-83.7220,69.88,1111122 
COMPS,ioos:station:USF.COMPS:C12:1,2014-12-16T03:05:00Z,27.4980,-83.7220,71.46,1111122 
COMPS,ioos:station:USF.COMPS:C12:1,2014-12-16T03:35:00Z,27.4980,-83.7220,71.21,1111122 
COMPS,ioos:station:USF.COMPS:C12:1,2014-12-16T04:05:00Z,27.4980,-83.7220,70.45,1111122 
COMPS,ioos:station:USF.COMPS:C12:1,2014-12-16T04:35:00Z,27.4980,-83.7220,69.68,1111122 
COMPS,ioos:station:USF.COMPS:C12:1,2014-12-16T05:05:00Z,27.4980,-83.7220,70.64,1111122 
COMPS,ioos:station:USF.COMPS:C12:1,2014-12-16T05:35:00Z,27.4980,-83.7220,64.58,1111122 
COMPS,ioos:station:USF.COMPS:C12:1,2014-12-16T06:05:00Z,27.4980,-83.7220,60.59,1111122 
COMPS,ioos:station:USF.COMPS:C12:1,2014-12-16T06:35:00Z,27.4980,-83.7220,65.59,1111122 
COMPS,ioos:station:USF.COMPS:C12:1,2014-12-16T07:05:00Z,27.4980,-83.7220,65.23,1111122 
COMPS,ioos:station:USF.COMPS:C12:1,2014-12-16T07:35:00Z,27.4980,-83.7220,65.97,1111122 
COMPS,ioos:station:USF.COMPS:C12:1,2014-12-16T08:05:00Z,27.4980,-83.7220,66.42,1111122 
COMPS,ioos:station:USF.COMPS:C12:1,2014-12-16T08:35:00Z,27.4980,-83.7220,64.96,1111122 
COMPS,ioos:station:USF.COMPS:C12:1,2014-12-16T09:05:00Z,27.4980,-83.7220,65.28,1111122 
COMPS,ioos:station:USF.COMPS:C12:1,2014-12-16T09:35:00Z,27.4980,-83.7220,65.13,1111122 
COMPS,ioos:station:USF.COMPS:C12:1,2014-12-16T10:05:00Z,27.4980,-83.7220,64.39,1111122 
COMPS,ioos:station:USF.COMPS:C12:1,2014-12-16T10:35:00Z,27.4980,-83.7220,65.95,1111122 
COMPS,ioos:station:USF.COMPS:C12:1,2014-12-16T11:05:00Z,27.4980,-83.7220,67.83,1111122 
COMPS,ioos:station:USF.COMPS:C12:1,2014-12-16T11:35:00Z,27.4980,-83.7220,66.46,1111122 
COMPS,ioos:station:USF.COMPS:C12:1,2014-12-16T12:05:00Z,27.4980,-83.7220,68.01,1111122 
COMPS,ioos:station:USF.COMPS:C12:1,2014-12-16T12:35:00Z,27.4980,-83.7220,65.97,1111122 
COMPS,ioos:station:USF.COMPS:C12:1,2014-12-16T13:05:00Z,27.4980,-83.7220,62.39,1111122 
COMPS,ioos:station:USF.COMPS:C12:1,2014-12-16T13:35:00Z,27.4980,-83.7220,61.97,1111122 
COMPS,ioos:station:USF.COMPS:C12:1,2014-12-16T14:05:00Z,27.4980,-83.7220,62.79,1111122 
COMPS,ioos:station:USF.COMPS:C12:1,2014-12-16T14:35:00Z,27.4980,-83.7220,61.63,1111122 
COMPS,ioos:station:USF.COMPS:C12:1,2014-12-16T15:05:00Z,27.4980,-83.7220,62.34,1111122 
COMPS,ioos:station:USF.COMPS:C12:1,2014-12-16T15:35:00Z,27.4980,-83.7220,62.85,1111122 
COMPS,ioos:station:USF.COMPS:C12:1,2014-12-16T16:05:00Z,27.4980,-83.7220,64.25,1111122 
COMPS,ioos:station:USF.COMPS:C12:1,2014-12-16T16:35:00Z,27.4980,-83.7220,64.35,1111122 
COMPS,ioos:station:USF.COMPS:C12:1,2014-12-16T17:05:00Z,27.4980,-83.7220,66.36,1111122 
COMPS,ioos:station:USF.COMPS:C12:1,2014-12-16T17:35:00Z,27.4980,-83.7220,66.79,1111122 
COMPS,ioos:station:USF.COMPS:C12:1,2014-12-16T18:05:00Z,27.4980,-83.7220,67.34,1111122 